TimeCDT,TemperatureF,Dew PointF,Humidity,Sea Level PressureIn,VisibilityMPH,Wind Direction,Wind SpeedMPH,Gust SpeedMPH,PrecipitationIn,Events,Conditions,WindDirDegrees,DateUTC
12:15 AM,62.1,48.2,60,29.84,10.0,SW,8.1,-,N/A,,Clear,220,2013-10-01 05:15:00
12:35 AM,61.9,48.6,62,29.85,10.0,SW,8.1,-,N/A,,Clear,220,2013-10-01 05:35:00
12:55 AM,61.5,49.3,64,29.85,10.0,SW,8.1,-,N/A,,Clear,220,2013-10-01 05:55:00
1:15 AM,61.2,49.6,66,29.85,10.0,SW,6.9,-,N/A,,Clear,230,2013-10-01 06:15:00
1:35 AM,60.8,50.0,68,29.86,10.0,SW,5.8,-,N/A,,Clear,230,2013-10-01 06:35:00
1:55 AM,60.4,50.4,69,29.85,10.0,SW,5.8,-,N/A,,Clear,230,2013-10-01 06:55:00
2:15 AM,59.9,51.1,73,29.85,10.0,SSW,8.1,-,N/A,,Clear,210,2013-10-01 07:15:00
2:35 AM,59.5,51.4,75,29.85,10.0,SSW,9.2,-,N/A,,Clear,210,2013-10-01 07:35:00
2:55 AM,58.5,51.4,77,29.85,10.0,SSW,6.9,-,N/A,,Clear,200,2013-10-01 07:55:00
3:15 AM,58.3,52.0,80,29.85,10.0,SSW,5.8,-,N/A,,Clear,200,2013-10-01 08:15:00
3:35 AM,59.9,53.6,80,29.85,10.0,SW,5.8,-,N/A,,Clear,220,2013-10-01 08:35:00
3:55 AM,60.4,54.5,81,29.84,10.0,SSW,8.1,-,N/A,,Clear,200,2013-10-01 08:55:00
4:15 AM,60.1,54.5,82,29.84,10.0,SSW,8.1,-,N/A,,Clear,200,2013-10-01 09:15:00
4:35 AM,59.5,55.0,85,29.84,10.0,South,8.1,-,N/A,,Clear,190,2013-10-01 09:35:00
4:55 AM,59.7,56.3,88,29.85,10.0,SSW,5.8,-,N/A,,Clear,200,2013-10-01 09:55:00
5:15 AM,59.7,56.5,89,29.85,10.0,South,5.8,-,N/A,,Clear,190,2013-10-01 10:15:00
5:35 AM,59.9,57.0,90,29.85,10.0,SSW,5.8,-,N/A,,Clear,200,2013-10-01 10:35:00
5:55 AM,60.4,57.2,89,29.85,10.0,SSW,8.1,-,N/A,,Clear,200,2013-10-01 10:55:00
6:15 AM,60.8,57.4,88,29.86,10.0,SSW,9.2,-,N/A,,Clear,200,2013-10-01 11:15:00
6:35 AM,60.3,57.4,90,29.85,10.0,SSW,10.4,-,N/A,,Clear,200,2013-10-01 11:35:00
6:55 AM,60.1,57.2,90,29.86,10.0,SSW,6.9,-,N/A,,Clear,200,2013-10-01 11:55:00
7:15 AM,60.3,57.4,90,29.86,10.0,South,6.9,-,N/A,,Clear,190,2013-10-01 12:15:00
7:35 AM,61.7,58.1,88,29.85,10.0,SSW,8.1,-,N/A,,Clear,200,2013-10-01 12:35:00
7:55 AM,62.2,58.1,86,29.85,10.0,SSW,12.7,18.4,N/A,,Clear,200,2013-10-01 12:55:00
8:15 AM,62.6,58.1,85,29.85,10.0,SSW,15.0,19.6,N/A,,Clear,200,2013-10-01 13:15:00
8:35 AM,63.5,58.6,84,29.85,10.0,SSW,12.7,20.7,N/A,,Clear,200,2013-10-01 13:35:00
8:55 AM,65.5,58.3,77,29.86,10.0,SSW,9.2,20.7,N/A,,Clear,210,2013-10-01 13:55:00
9:15 AM,67.5,57.7,71,29.85,10.0,SSW,11.5,17.3,N/A,,Clear,210,2013-10-01 14:15:00
9:35 AM,68.7,57.2,67,29.86,10.0,SSW,12.7,23.0,N/A,,Clear,210,2013-10-01 14:35:00
9:55 AM,69.8,56.8,63,29.86,10.0,SW,15.0,20.7,N/A,,Clear,220,2013-10-01 14:55:00
10:15 AM,71.1,57.0,61,29.85,10.0,SW,17.3,20.7,N/A,,Clear,220,2013-10-01 15:15:00
10:35 AM,72.1,57.4,60,29.86,10.0,SW,11.5,-,N/A,,Clear,220,2013-10-01 15:35:00
10:55 AM,73.0,57.0,57,29.86,10.0,SW,10.4,23.0,N/A,,Clear,220,2013-10-01 15:55:00
11:15 AM,73.8,56.8,55,29.85,10.0,SW,10.4,-,N/A,,Clear,230,2013-10-01 16:15:00
11:35 AM,74.8,56.7,53,29.85,10.0,SW,12.7,-,N/A,,Clear,230,2013-10-01 16:35:00
11:55 AM,75.4,55.9,51,29.86,10.0,SW,13.8,20.7,N/A,,Clear,220,2013-10-01 16:55:00
12:15 PM,76.5,57.0,51,29.86,10.0,SW,12.7,18.4,N/A,,Clear,230,2013-10-01 17:15:00
12:35 PM,77.0,56.5,49,29.85,10.0,SW,13.8,19.6,N/A,,Clear,220,2013-10-01 17:35:00
12:55 PM,77.5,56.7,48,29.85,10.0,WSW,15.0,21.9,N/A,,Clear,240,2013-10-01 17:55:00
1:15 PM,78.4,56.8,47,29.86,10.0,SW,13.8,21.9,N/A,,Clear,230,2013-10-01 18:15:00
1:35 PM,79.0,56.8,46,29.85,10.0,WSW,16.1,21.9,N/A,,Clear,250,2013-10-01 18:35:00
1:55 PM,78.8,56.3,46,29.85,10.0,WSW,16.1,21.9,N/A,,Clear,240,2013-10-01 18:55:00
2:15 PM,79.2,56.3,45,29.86,10.0,WSW,11.5,21.9,N/A,,Clear,240,2013-10-01 19:15:00
2:35 PM,79.9,57.0,45,29.86,10.0,SW,12.7,19.6,N/A,,Clear,230,2013-10-01 19:35:00
2:55 PM,80.2,55.9,43,29.86,10.0,WSW,13.8,19.6,N/A,,Clear,240,2013-10-01 19:55:00
3:15 PM,80.2,56.3,44,29.86,10.0,WSW,15.0,-,N/A,,Clear,240,2013-10-01 20:15:00
3:35 PM,80.2,55.8,43,29.86,10.0,WSW,12.7,16.1,N/A,,Clear,240,2013-10-01 20:35:00
3:55 PM,80.1,56.1,44,29.86,10.0,West,13.8,18.4,N/A,,Clear,260,2013-10-01 20:55:00
4:15 PM,80.1,56.5,44,29.87,10.0,WSW,8.1,-,N/A,,Clear,240,2013-10-01 21:15:00
4:35 PM,79.7,55.8,44,29.87,10.0,West,12.7,16.1,N/A,,Clear,260,2013-10-01 21:35:00
4:55 PM,79.2,55.4,44,29.88,10.0,WSW,11.5,-,N/A,,Clear,250,2013-10-01 21:55:00
5:15 PM,78.4,56.3,46,29.88,10.0,West,8.1,-,N/A,,Clear,260,2013-10-01 22:15:00
5:35 PM,77.5,55.9,47,29.89,10.0,West,9.2,-,N/A,,Clear,270,2013-10-01 22:35:00
5:55 PM,75.7,56.5,51,29.89,10.0,West,6.9,-,N/A,,Clear,270,2013-10-01 22:55:00
6:15 PM,72.7,57.2,58,29.90,10.0,West,5.8,-,N/A,,Clear,280,2013-10-01 23:15:00
6:35 PM,70.7,57.2,62,29.90,10.0,West,4.6,-,N/A,,Clear,260,2013-10-01 23:35:00
6:55 PM,69.8,56.8,63,29.91,10.0,WSW,3.5,-,N/A,,Clear,250,2013-10-01 23:55:00
7:15 PM,68.9,57.2,66,29.91,10.0,WSW,3.5,-,N/A,,Clear,240,2013-10-02 00:15:00
7:55 PM,64.0,57.0,78,29.93,10.0,Calm,Calm,-,N/A,,Clear,0,2013-10-02 00:55:00
8:15 PM,63.1,58.3,84,29.93,10.0,Calm,Calm,-,N/A,,Clear,0,2013-10-02 01:15:00
8:35 PM,61.2,57.9,89,29.93,10.0,Calm,Calm,-,N/A,,Clear,0,2013-10-02 01:35:00
8:55 PM,60.3,57.4,90,29.93,10.0,Calm,Calm,-,N/A,,Clear,0,2013-10-02 01:55:00
9:15 PM,61.3,57.4,87,29.94,10.0,Calm,Calm,-,N/A,,Clear,0,2013-10-02 02:15:00
9:35 PM,59.7,56.7,90,29.95,10.0,Calm,Calm,-,N/A,,Clear,0,2013-10-02 02:35:00
9:55 PM,61.3,55.8,82,29.96,10.0,Calm,Calm,-,N/A,,Clear,0,2013-10-02 02:55:00
10:15 PM,60.1,57.2,90,29.96,10.0,Calm,Calm,-,N/A,,Clear,0,2013-10-02 03:15:00
10:35 PM,58.1,55.8,92,29.97,10.0,Calm,Calm,-,N/A,,Clear,0,2013-10-02 03:35:00
10:55 PM,56.7,55.0,94,29.97,10.0,Calm,Calm,-,N/A,,Clear,0,2013-10-02 03:55:00
11:15 PM,56.7,55.0,94,29.98,10.0,Calm,Calm,-,N/A,,Clear,0,2013-10-02 04:15:00
11:35 PM,55.0,53.6,95,29.99,7.0,Calm,Calm,-,N/A,,Clear,0,2013-10-02 04:35:00
11:55 PM,55.0,53.8,96,29.99,0.8,Calm,Calm,-,N/A,,Unknown,0,2013-10-02 04:55:00